CW9206 Weather Reports


time (UTC)temp
F
wind
direction
speed
knots
gust
knots
rain 1hr
in
rain 24hr
in
rain mn
in
humidity
%
barometer
mb
20260506190732 76 248 2.6 6.1 0.00 0.00 0.00 39 1016.7
20260506190232 75 288 3.5 4.3 0.00 0.00 0.00 39 1016.7
20260506185732 75 145 0.0 3.5 0.00 0.00 0.00 39 1016.8
20260506184734 74 331 0.0 6.1 0.00 0.00 0.00 39 1017.0
20260506183732 74 221 1.7 6.1 0.00 0.00 0.00 38 1017.1
20260506183232 74 186 0.0 6.1 0.00 0.00 0.00 37 1017.2
20260506182232 73 288 0.0 5.2 0.00 0.00 0.00 37 1017.3
20260506181732 72 182 1.7 4.3 0.00 0.00 0.00 37 1017.4
20260506181232 72 178 1.7 5.2 0.00 0.00 0.00 36 1017.4
20260506180732 71 264 0.9 5.2 0.00 0.00 0.00 36 1017.4
20260506180231 71 257 0.9 5.2 0.00 0.00 0.00 35 1017.5
20260506175732 70 270 0.0 8.7 0.00 0.00 0.00 35 1017.6
20260506175232 70 300 0.0 8.7 0.00 0.00 0.00 35 1017.5
20260506174232 69 171 1.7 4.3 0.00 0.00 0.00 34 1017.4
20260506173732 68 172 1.7 3.5 0.00 0.00 0.00 34 1017.5
20260506173231 68 171 0.0 3.5 0.00 0.00 0.00 34 1017.5
20260506172731 67 165 0.0 4.3 0.00 0.00 0.00 34 1017.4
20260506172231 67 182 1.7 4.3 0.00 0.00 0.00 33 1017.5
20260506171231 66 180 0.9 4.3 0.00 0.00 0.00 33 1017.5
20260506170731 66 179 0.0 4.3 0.00 0.00 0.00 32 1017.5
20260506165731 65 198 0.0 4.3 0.00 0.00 0.00 32 1017.5
20260506164730 64 193 0.0 4.3 0.00 0.00 0.00 31 1017.4
20260506164230 63 192 0.9 4.3 0.00 0.00 0.00 31 1017.4
20260506163731 63 191 0.0 4.3 0.00 0.00 0.00 31 1017.4
20260506163230 62 161 0.9 3.5 0.00 0.00 0.00 30 1017.3
20260506162730 62 160 2.6 3.5 0.00 0.00 0.00 30 1017.4
20260506162231 61 161 0.0 3.5 0.00 0.00 0.00 30 1017.4
20260506161730 61 106 1.7 3.5 0.00 0.00 0.00 30 1017.4
20260506161230 61 338 0.0 1.7 0.00 0.00 0.00 29 1017.4
20260506160730 61 338 0.0 1.7 0.00 0.00 0.00 29 1017.5
20260506160230 61 338 0.0 2.6 0.00 0.00 0.00 28 1017.5
20260506155730 60 338 0.9 3.5 0.00 0.00 0.00 28 1017.5
20260506155230 60 338 0.0 5.2 0.00 0.00 0.00 27 1017.5
20260506154730 60 339 0.0 5.2 0.00 0.00 0.00 27 1017.5
20260506154230 59 339 2.6 3.5 0.00 0.00 0.00 26 1017.4
20260506152729 59 338 0.0 3.5 0.00 0.00 0.00 23 1017.5
20260506152230 59 339 0.0 3.5 0.00 0.00 0.00 22 1017.5
20260506151229 58 339 0.0 0.9 0.00 0.00 0.00 20 1017.5
20260506150730 58 339 0.0 0.9 0.00 0.00 0.00 20 1017.5
20260506150229 57 339 0.0 0.0 0.00 0.00 0.00 18 1017.4
20260506145729 57 338 0.0 0.0 0.00 0.00 0.00 18 1017.6
20260506145229 56 338 0.0 0.0 0.00 0.00 0.00 18 1017.5
20260506144729 56 339 0.0 2.6 0.00 0.00 0.00 18 1017.5
20260506144229 56 339 0.0 2.6 0.00 0.00 0.00 18 1017.5
20260506143729 56 339 0.0 0.9 0.00 0.00 0.00 17 1017.4
20260506143229 56 339 0.0 0.0 0.00 0.00 0.00 17 1017.4
20260506142229 55 338 0.0 0.0 0.00 0.00 0.00 17 1017.4
20260506141729 55 340 0.0 0.0 0.00 0.00 0.00 17 1017.4
20260506140728 55 334 0.0 0.0 0.00 0.00 0.00 16 1017.4
20260506140229 55 303 0.0 0.0 0.00 0.00 0.00 16 1017.4
20260506135728 55 303 0.0 0.0 0.00 0.00 0.00 16 1017.4
20260506135229 55 304 0.0 0.0 0.00 0.00 0.00 16 1017.3
20260506134729 55 304 0.0 0.0 0.00 0.00 0.00 16 1017.4
20260506134228 54 304 0.0 0.0 0.00 0.00 0.00 16 1017.3
20260506133729 54 304 0.0 0.0 0.00 0.00 0.00 16 1017.4
20260506133228 54 304 0.0 0.0 0.00 0.00 0.00 16 1017.3
20260506132728 54 304 0.0 0.0 0.00 0.00 0.00 16 1017.2
20260506132228 54 304 0.0 0.0 0.00 0.00 0.00 16 1017.1
20260506131728 54 304 0.0 0.0 0.00 0.00 0.00 16 1017.1
20260506130228 54 304 0.0 0.0 0.00 0.00 0.00 16 1016.9
20260506125228 54 304 0.0 0.0 0.00 0.00 0.00 16 1016.9
20260506124728 54 304 0.0 0.0 0.00 0.00 0.00 16 1017.0
20260506124228 54 304 0.0 0.0 0.00 0.00 0.00 16 1017.0
20260506123727 54 304 0.0 0.0 0.00 0.00 0.00 16 1016.9
20260506123227 54 304 0.0 0.0 0.00 0.00 0.00 15 1016.9
20260506122727 54 295 0.0 0.0 0.00 0.00 0.00 15 1017.0
20260506121728 54 295 0.0 0.0 0.00 0.00 0.00 15 1017.0
20260506121226 54 295 0.0 0.0 0.00 0.00 0.00 15 1016.9
20260506120727 54 295 0.0 0.0 0.00 0.00 0.00 15 1016.9
20260506120227 54 295 0.0 0.0 0.00 0.00 0.00 15 1016.9
20260506115227 54 295 0.0 0.0 0.00 0.00 0.00 15 1017.2
20260506114726 54 295 0.0 0.0 0.00 0.00 0.00 15 1017.2
20260506114227 54 295 0.0 0.0 0.00 0.00 0.00 15 1017.3
20260506113726 54 295 0.0 0.0 0.00 0.00 0.00 15 1017.3
20260506112226 55 295 0.0 0.0 0.00 0.00 0.00 15 1017.2
20260506111726 55 295 0.0 0.0 0.00 0.00 0.00 15 1017.2
20260506111227 55 295 0.0 0.0 0.00 0.00 0.00 15 1017.1
20260506110726 55 295 0.0 0.0 0.00 0.00 0.00 15 1017.1
20260506110226 55 295 0.0 0.0 0.00 0.00 0.00 15 1017.2
20260506105726 55 295 0.0 0.0 0.00 0.00 0.00 15 1017.2
20260506104726 55 295 0.0 0.0 0.00 0.00 0.00 15 1017.1
20260506103725 55 295 0.0 0.0 0.00 0.00 0.00 15 1017.1
20260506103225 55 295 0.0 0.0 0.00 0.00 0.00 15 1017.1
20260506102726 55 295 0.0 0.0 0.00 0.00 0.00 15 1017.1
20260506101725 55 295 0.0 0.0 0.00 0.00 0.00 15 1017.0
20260506101225 55 295 0.0 0.0 0.00 0.00 0.00 15 1017.1
20260506100725 55 295 0.0 0.0 0.00 0.00 0.00 15 1017.1
20260506100225 55 295 0.0 0.0 0.00 0.00 0.00 15 1017.0
20260506095725 55 295 0.0 0.0 0.00 0.00 0.00 15 1016.9
20260506094225 55 295 1.7 1.7 0.00 0.00 0.00 15 1017.0
20260506093224 55 295 0.0 0.0 0.00 0.00 0.00 15 1017.0
20260506092725 55 295 0.0 1.7 0.00 0.00 0.00 15 1017.0
20260506092225 55 295 0.0 1.7 0.00 0.00 0.00 15 1017.0
20260506091724 55 295 0.0 0.0 0.00 0.00 0.00 15 1017.1
20260506091225 55 295 0.0 0.0 0.00 0.00 0.00 14 1017.1
20260506090724 55 295 0.0 0.0 0.00 0.00 0.00 14 1017.1
20260506085724 55 295 0.0 0.9 0.00 0.00 0.00 14 1017.2
20260506085224 55 295 0.0 4.3 0.00 0.00 0.00 14 1017.3
20260506084724 55 295 0.0 4.3 0.00 0.00 0.00 14 1017.3
20260506084224 55 294 0.0 3.5 0.00 0.00 0.00 14 1017.4
20260506083724 55 294 0.0 0.0 0.00 0.00 0.00 14 1017.3
20260506083223 55 294 0.0 0.0 0.00 0.00 0.00 14 1017.4
20260506082724 54 294 0.0 0.0 0.00 0.00 0.00 14 1017.4
20260506082224 54 294 0.0 0.0 0.00 0.00 0.00 14 1017.5
20260506081723 54 294 0.0 0.0 0.00 0.00 0.00 15 1017.3
20260506080723 54 294 0.0 0.0 0.00 0.00 0.00 15 1017.4
20260506080223 53 294 0.0 0.0 0.00 0.00 0.00 15 1017.3
20260506073223 52 294 0.0 0.0 0.00 0.00 0.00 17 1017.3
20260506072723 52 294 0.0 0.0 0.00 0.00 0.00 18 1017.3
20260506072223 52 294 0.0 0.0 0.00 0.00 0.00 18 1017.3
20260506071723 52 294 0.0 0.0 0.00 0.00 0.00 18 1017.2
20260506070253 52 294 0.0 0.0 0.00 0.00 0.00 19 1017.1
20260506062252 53 294 0.0 0.0 0.00 0.00 0.00 19 1016.9
20260506061752 53 294 0.0 0.0 0.00 0.00 0.00 19 1016.8
20260506061252 54 294 0.0 0.0 0.00 0.00 0.00 19 1016.8
20260506060752 54 294 0.0 0.0 0.00 0.00 0.00 19 1016.8
20260506060251 54 294 0.0 0.0 0.00 0.00 0.00 20 1016.8
20260506051251 55 294 0.0 0.0 0.00 0.00 0.00 25 1016.6
20260506050751 55 294 0.0 0.0 0.00 0.00 0.00 25 1016.6
20260506050251 55 294 0.0 0.0 0.00 0.00 0.00 26 1016.5
20260506044751 55 294 0.0 0.0 0.00 0.00 0.00 28 1016.2
20260506044250 56 294 0.0 2.6 0.00 0.00 0.00 29 1016.2
20260506043751 56 294 0.0 2.6 0.00 0.00 0.00 30 1016.0
20260506043251 56 294 0.0 1.7 0.00 0.00 0.00 31 1016.0
20260506042750 56 294 0.0 0.9 0.00 0.00 0.00 31 1016.0
20260506042250 56 294 0.0 0.9 0.00 0.00 0.00 32 1016.0
20260506041750 56 294 0.0 0.0 0.00 0.00 0.00 33 1015.9
20260506041250 57 294 0.0 3.5 0.00 0.00 0.00 34 1015.8
20260506040750 57 294 0.0 3.5 0.00 0.00 0.00 35 1015.7
20260506040250 57 294 0.0 2.6 0.00 0.00 0.00 36 1015.6
20260506035750 58 294 0.0 2.6 0.00 0.00 0.00 37 1015.4
20260506034750 58 294 0.0 3.5 0.00 0.00 0.00 38 1015.3
20260506034250 59 294 2.6 3.5 0.00 0.00 0.00 39 1015.2
20260506033749 59 294 0.9 3.5 0.00 0.00 0.00 39 1015.1
20260506033249 59 294 0.0 0.9 0.00 0.00 0.00 40 1015.1
20260506032749 59 294 0.0 1.7 0.00 0.00 0.00 41 1015.0
20260506032249 59 294 0.9 3.5 0.00 0.00 0.00 41 1014.8
20260506031249 60 296 0.0 3.5 0.00 0.00 0.00 43 1014.7
20260506030749 60 296 0.0 3.5 0.00 0.00 0.00 43 1014.7
20260506030249 61 298 0.0 4.3 0.00 0.00 0.00 44 1014.6
20260506025749 61 298 0.0 4.3 0.00 0.00 0.00 44 1014.5
20260506025249 61 304 0.0 5.2 0.00 0.00 0.00 45 1014.3
20260506024749 61 302 0.0 5.2 0.00 0.00 0.00 46 1014.3
20260506023748 62 303 2.6 7.0 0.00 0.00 0.00 47 1014.0
20260506023249 62 305 0.9 7.0 0.00 0.00 0.00 48 1013.8
20260506022748 62 318 0.0 4.3 0.00 0.00 0.00 49 1013.9
20260506022248 63 271 0.9 3.5 0.00 0.00 0.00 50 1013.9
20260506021748 63 273 0.9 7.8 0.00 0.00 0.00 50 1013.9
20260506020749 64 294 0.9 7.8 0.00 0.00 0.00 51 1013.9
20260506015248 66 300 4.3 10.4 0.00 0.00 0.00 51 1013.7
20260506014748 66 302 2.6 12.2 0.00 0.00 0.00 50 1013.4
20260506012748 69 300 0.0 6.1 0.00 0.00 0.00 49 1013.3
20260506012248 69 297 0.9 8.7 0.00 0.00 0.00 48 1013.3
20260506011748 70 257 2.6 8.7 0.00 0.00 0.00 49 1013.4
20260506011248 70 311 3.5 8.7 0.00 0.00 0.00 48 1013.4
20260506010747 70 317 3.5 6.1 0.00 0.00 0.00 48 1013.3
20260506010248 71 269 6.1 10.4 0.00 0.00 0.00 47 1013.3
20260506005748 71 314 3.5 10.4 0.00 0.00 0.00 47 1013.3
20260506005248 72 303 0.0 10.4 0.00 0.00 0.00 46 1013.3
20260506004247 72 307 9.6 12.2 0.00 0.00 0.00 45 1013.3
20260506003747 72 360 0.9 11.3 0.00 0.00 0.00 44 1013.2
20260506003247 73 311 0.9 11.3 0.00 0.00 0.00 44 1013.3
20260506002748 73 321 2.6 9.6 0.00 0.00 0.00 44 1013.3
20260506002247 73 296 6.1 9.6 0.00 0.00 0.00 44 1013.3
20260506001747 73 335 3.5 9.6 0.00 0.00 0.00 44 1013.3
20260506000747 74 328 4.3 9.6 0.00 0.00 0.00 43 1013.3
20260506000247 74 315 9.6 9.6 0.00 0.00 0.00 43 1013.3
20260505235246 74 318 5.2 8.7 0.00 0.00 0.00 43 1013.1
20260505234747 74 343 6.1 10.4 0.00 0.00 0.00 43 1013.0
20260505234247 74 17 2.6 10.4 0.00 0.00 0.00 43 1013.1
20260505233747 74 317 8.7 12.2 0.00 0.00 0.00 42 1013.1
20260505233246 75 288 2.6 12.2 0.00 0.00 0.00 42 1013.2
20260505232746 75 321 0.9 9.6 0.00 0.00 0.00 42 1013.2
20260505232246 75 331 4.3 12.2 0.00 0.00 0.00 42 1013.2
20260505231746 76 302 5.2 12.2 0.00 0.00 0.00 41 1013.2
20260505230246 76 303 4.3 13.0 0.00 0.00 0.00 41 1013.4
20260505225745 76 346 5.2 12.2 0.00 0.00 0.00 40 1013.3
20260505224746 75 325 7.0 11.3 0.00 0.00 0.00 41 1013.4
20260505224246 75 299 4.3 11.3 0.00 0.00 0.00 41 1013.3
20260505223745 75 309 6.1 11.3 0.00 0.00 0.00 41 1013.3
20260505223245 74 303 1.7 10.4 0.00 0.01 0.00 42 1013.4
20260505222745 74 309 2.6 12.2 0.00 0.01 0.00 42 1013.3
20260505222245 73 332 2.6 12.2 0.00 0.01 0.00 43 1013.3
20260505221245 71 318 3.5 9.6 0.00 0.01 0.00 44 1013.4
20260505220745 70 327 2.6 9.6 0.00 0.01 0.00 45 1013.4
20260505215745 70 302 0.9 16.5 0.00 0.01 0.00 46 1013.5
20260505214745 70 317 5.2 13.0 0.00 0.01 0.00 45 1013.6
20260505214245 69 301 12.2 12.2 0.00 0.01 0.00 46 1013.5
20260505213744 69 304 2.6 12.2 0.00 0.01 0.00 46 1013.6
20260505213245 69 302 7.8 12.2 0.00 0.01 0.00 46 1013.6
20260505212744 69 229 2.6 12.2 0.00 0.01 0.00 46 1013.6
20260505212244 69 304 4.3 12.2 0.00 0.01 0.00 46 1013.6
20260505211744 69 311 12.2 12.2 0.00 0.01 0.00 46 1013.6
20260505211244 69 318 2.6 15.6 0.00 0.01 0.00 46 1013.6
20260505210744 70 313 7.0 15.6 0.00 0.01 0.00 45 1013.5
20260505205244 71 249 5.2 10.4 0.00 0.01 0.00 45 1013.5
20260505204744 71 295 0.0 15.6 0.00 0.01 0.00 45 1013.5
20260505203744 72 325 4.3 13.0 0.00 0.01 0.00 44 1013.6
20260505202743 73 286 7.8 12.2 0.00 0.01 0.00 42 1013.6
20260505202244 73 185 4.3 12.2 0.00 0.01 0.00 42 1013.6
20260505201744 72 302 3.5 11.3 0.00 0.01 0.00 42 1013.6
20260505201243 72 286 0.0 15.6 0.00 0.01 0.00 43 1013.7
20260505200744 72 288 3.5 15.6 0.00 0.01 0.00 43 1013.8
20260505200243 72 312 2.6 7.8 0.00 0.01 0.00 43 1013.7
20260505195243 72 275 3.5 12.2 0.00 0.01 0.00 42 1013.7
20260505194243 71 291 11.3 13.9 0.00 0.01 0.00 43 1013.8
20260505193742 70 312 2.6 10.4 0.00 0.01 0.00 44 1013.9
20260505193244 69 306 7.8 12.2 0.00 0.01 0.00 44 1014.0
20260505192743 70 264 3.5 12.2 0.00 0.01 0.00 43 1014.0
20260505192243 70 292 6.1 12.2 0.00 0.01 0.00 43 1014.0
20260505191743 70 309 1.7 11.3 0.00 0.01 0.00 43 1013.9
20260505191243 70 11 3.5 10.4 0.00 0.01 0.00 43 1013.9